[Date Prev][Date Next][Thread Prev][Thread Next] - [Date Index][Thread Index][Author Index]

2 Line ISS Keps 1-13



ISS
1 25544U 98067A   06013.03503319  .00010469  00000-0  76123-4 0  1449
2 25544 051.6439 265.2328 0010781 147.3724 289.3972 15.73969915408718
----
Via the sarex mailing list at AMSAT.ORG courtesy of AMSAT-NA.
To unsubscribe, send "unsubscribe sarex" to Majordomo@amsat.org



AMSAT Top AMSAT Home